Weather in Vestmannaeyjar

Iceland     63°26′20″N   20°16′19″W
temp.,
°C
wind,
m/s
gust,
m/s
humid.,
%
clouds,
%
prec.,
mm/h
press.,
hPa
HPBL,
m
28 february, sun
sun2800:00+6sw151968100 0.9 10091899
03:00+5sw151871100 0.4 10101787
06:00+5sw141766100 0.9 10121899
09:00+5sw151866100 0.4 10121986
12:00+5sw161965100 1.3 10132140
15:00+4wsw141869100 0.4 10131899
18:00+5wsw111469100 0.8 10141576
21:00+5sw8969100 0.4 10161160
1 march, mon
mon100:00+5sw6768100 0.6 10161064
03:00+5wsw6768100 0.2 10161042
06:00+5w786899 0.3 10181078
09:00+5wsw676692 0.1 10201057
12:00+5wsw556580 0.1 10221037
15:00+5wsw3460100 0.0 10221162
18:00+5ese2258100 0.0 1022656
21:00+5ese5667100 0.0 1023698
2 march, tue
tue200:00+4ese7887100 0.1 1022534
03:00+4ese71090100 0.9 1020385
06:00+6se9118787 1.0 1019534
09:00+6ese81089100 0.3 1020346
12:00+7ese81088100 0.5 1020327
15:00+7ese7984100 0.0 1020306
18:00+7ese6883100 0.0 1021208
21:00+7e578394 0.0 1023173
3 march, wed
wed300:00+7e578197 0.0 1025169
03:00+7e71181100 0.0 1026428
06:00+6ese111388100 1.2 1028592
09:00+4ese131583100 1.1 1031641
12:00+4ese141681100 1.3 1033649
15:00+4ese131475100 0.0 1035636
18:00+3ese121376100 0.0 1036566
21:00+3ese10117799 0.0 1036502
4 march, thu
thu400:00+2ese11127898 0.0 1037543
03:00+3ese9107599 0.0 1037568
06:00+3ese8107699 0.0 1035595
09:00+3ese9118094 0.0 1034654
12:00+3ese8107997 0.0 1033672
15:00+4ese91180100 0.0 1032762
18:00+4ese91180100 0.0 1030711
21:00+4ese101281100 0.0 1029681